Location: Newark
(47.5833°N, 8.1500°E)
Time: 17:59:55
(UTC+00:00)

Transit 2A - Pass Details

Date: 02 November 2020
Orbit: 595 x 964 km, 66.7° (Epoch: 01 December)

Event Time Altitude Azimuth Distance (km) Brightness Sun altitude
Rises 02:12:39 0° 276° (W) 3,644 - -40.3°
Reaches altitude 10° 02:16:14 10° 295° (WNW) 2,678 - -39.8°
Maximum altitude 02:20:17 17° 335° (NNW) 2,147 - -39.1°
Exits shadow 02:22:55 14° 5° (N) 2,343 8.7 -38.7°
Drops below altitude 10° 02:24:12 10° 16° (NNE) 2,578 9.1 -38.5°
Sets 02:27:34 0° 36° (NE) 3,453 10.1 -38.0°
